sat.trackr.live / text

‹ back to catalog

ONEWEB-0229

NORAD 48779 · 2021-045N

PAYLOAD ACTIVE UNKNOWN

§ Identity

Operator
Country
UK
Launch date
2021-05-28
Launch site
VOSTO
Launch vehicle
Mass (kg)
RCS (m²)

Purposes: comms

External: N2YO · Heavens-Above · Gunter

§ Orbital elements

Epoch: 2026-05-25T02:13:05.850048Z

Period
109.46 min
Inclination
87.8998°
Eccentricity
0.0001886
Mean motion
13.15547358 rev/d
Perigee alt
1,200.3 km
Apogee alt
1,203.2 km
Semi-major
7,579.9 km
B*
2.9582e-4
RAAN
263.7906°
Arg perigee
95.8465°
Mean anomaly
264.2881°
Rev number
24,137

§ Raw data

ONEWEB-02291 48779U 21045N   26145.09242882  .00000124  00000+0  29582-3 0  99952 48779  87.8998 263.7906 0001886  95.8465 264.2881 13.15547358241379

JSON: /api/v1/satellites/48779 · /tle

For live sub-satellite position, see the globe view (requires WebGL).

§ Visibility from observer

Set your observer location to see the next 7 days of passes ≥ 10°. The values pass through the URL so the page stays shareable.

No JS? Fill the form by hand. The geolocation button needs JavaScript.